DW9186 Weather Reports


Display with metric or nautical units.
time (UTC)temp
F
wind
direction
speed
MPH
gust
MPH
rain 1hr
in
rain 24hr
in
rain mn
in
humidity
%
barometer
mb
20210922161602 63 22 1.0 6.0 0.00 0.20 0.03 90 1013.2
20210922161100 63 316 2.0 6.0 0.00 0.20 0.03 90 1013.2
20210922160603 62 11 1.0 6.0 0.00 0.20 0.03 91 1013.2
20210922160103 62 277 1.0 6.0 0.00 0.20 0.03 90 1013.2
20210922155603 62 331 1.0 3.0 0.00 0.20 0.03 92 1013.3
20210922155102 62 284 1.0 3.0 0.00 0.20 0.03 91 1013.4
20210922154603 62 285 1.0 3.0 0.00 0.20 0.03 91 1013.4
20210922154103 62 282 2.0 5.0 0.00 0.20 0.03 91 1013.3
20210922153603 62 276 1.0 5.0 0.00 0.20 0.03 92 1013.2
20210922153103 62 232 1.0 2.0 0.00 0.20 0.03 93 1013.4
20210922152603 62 249 0.0 3.0 0.00 0.20 0.03 93 1013.3
20210922152103 62 248 1.0 3.0 0.00 0.20 0.03 93 1013.3
20210922151603 61 248 1.0 3.0 0.00 0.20 0.03 93 1013.3
20210922151103 61 205 0.0 2.0 0.00 0.20 0.03 93 1013.3
20210922150603 61 204 0.0 3.0 0.00 0.20 0.03 93 1013.3
20210922150103 61 203 0.0 5.0 0.00 0.20 0.03 93 1013.3
20210922145603 61 299 1.0 5.0 0.01 0.20 0.03 94 1013.2
20210922145103 61 291 0.0 3.0 0.01 0.20 0.03 94 1013.2
20210922144603 61 304 0.0 3.0 0.01 0.20 0.03 94 1013.1
20210922144103 61 304 1.0 3.0 0.01 0.20 0.03 94 1012.9
20210922143603 61 313 0.0 2.0 0.01 0.20 0.03 94 1013.0
20210922143103 61 336 0.0 1.0 0.01 0.20 0.03 94 1013.1
20210922142603 61 336 0.0 1.0 0.01 0.20 0.03 94 1013.1
20210922142103 61 338 0.0 0.0 0.01 0.20 0.03 95 1013.1
20210922141603 61 338 0.0 1.0 0.01 0.20 0.03 94 1012.9
20210922141103 60 338 0.0 1.0 0.01 0.20 0.03 94 1013.1
20210922140603 60 338 0.0 1.0 0.01 0.20 0.03 94 1012.8
20210922140103 60 338 0.0 2.0 0.01 0.20 0.03 94 1012.9
20210922135603 60 338 0.0 2.0 0.00 0.19 0.02 95 1013.0
20210922135103 60 337 0.0 2.0 0.01 0.19 0.02 95 1013.2
20210922134603 60 337 0.0 2.0 0.01 0.19 0.02 95 1013.4
20210922134103 60 338 1.0 3.0 0.01 0.19 0.02 95 1013.3
20210922133603 60 340 0.0 3.0 0.02 0.19 0.02 94 1013.0
20210922133103 60 351 0.0 3.0 0.02 0.19 0.02 94 1012.8
20210922132602 60 5 1.0 3.0 0.02 0.19 0.02 95 1012.3
20210922132103 60 5 1.0 2.0 0.02 0.19 0.02 95 1012.1
20210922131603 60 25 0.0 3.0 0.02 0.19 0.02 95 1012.3
20210922131103 60 355 1.0 3.0 0.02 0.19 0.02 94 1012.4
20210922130603 60 15 1.0 3.0 0.02 0.19 0.02 94 1012.5
20210922130103 60 22 1.0 3.0 0.02 0.19 0.02 94 1012.6
20210922125603 60 13 1.0 5.0 0.02 0.19 0.02 94 1012.9
20210922125103 60 5 1.0 5.0 0.01 0.18 0.01 93 1013.3
20210922124604 60 23 0.0 3.0 0.01 0.18 0.01 93 1013.2
20210922124103 61 355 1.0 2.0 0.01 0.18 0.01 92 1013.7
20210922123603 61 355 0.0 3.0 0.00 0.17 0.00 91 1013.3
20210922123104 61 355 1.0 3.0 0.00 0.17 0.00 90 1013.0
20210922122603 61 355 1.0 3.0 0.00 0.17 0.00 90 1012.9
20210922122103 61 346 1.0 3.0 0.00 0.17 0.00 89 1013.0
20210922121604 61 16 1.0 3.0 0.01 0.17 0.00 89 1013.2
20210922121103 61 5 1.0 3.0 0.01 0.17 0.00 89 1012.9
20210922120604 61 355 0.0 3.0 0.01 0.17 0.00 89 1012.7
20210922120103 61 57 1.0 3.0 0.02 0.17 0.00 90 1012.8
20210922115603 61 306 1.0 3.0 0.06 0.17 0.17 89 1012.5
20210922115104 62 325 0.0 5.0 0.07 0.17 0.17 90 1012.2
20210922114604 62 5 1.0 5.0 0.07 0.17 0.17 89 1012.0
20210922114103 62 17 1.0 7.0 0.07 0.17 0.17 90 1011.9
20210922113605 62 13 1.0 7.0 0.07 0.17 0.17 91 1011.8
20210922113103 62 317 2.0 6.0 0.07 0.17 0.17 92 1011.6
20210922112604 63 14 1.0 8.0 0.07 0.17 0.17 92 1011.3
20210922112103 63 5 1.0 10.0 0.07 0.17 0.17 92 1011.2
20210922111604 64 316 5.0 10.0 0.06 0.16 0.16 93 1011.1
20210922111103 65 334 0.0 3.0 0.06 0.16 0.16 94 1011.0
20210922110603 65 5 1.0 3.0 0.06 0.16 0.16 94 1010.9
20210922110104 66 309 0.0 3.0 0.05 0.15 0.15 95 1010.8
20210922105603 66 297 0.0 3.0 0.01 0.11 0.11 94 1010.6
20210922105103 66 342 1.0 7.0 0.00 0.10 0.10 94 1010.4
20210922104604 66 305 1.0 7.0 0.00 0.10 0.10 94 1010.3
20210922104103 67 305 2.0 7.0 0.00 0.10 0.10 94 1010.3
20210922103604 67 332 0.0 7.0 0.00 0.10 0.10 94 1010.2
20210922103103 68 264 0.0 7.0 0.00 0.10 0.10 94 1010.2
20210922102604 69 302 1.0 3.0 0.00 0.10 0.10 95 1010.0
20210922102104 69 38 1.0 3.0 0.00 0.10 0.10 95 1009.8
20210922101603 70 247 1.0 5.0 0.00 0.10 0.10 95 1009.6
20210922101103 70 290 1.0 5.0 0.00 0.10 0.10 95 1009.5
20210922100603 70 309 0.0 3.0 0.00 0.10 0.10 96 1009.3
20210922100103 71 284 0.0 0.0 0.00 0.10 0.10 96 1009.1
20210922095603 71 284 0.0 0.0 0.00 0.10 0.10 96 1009.0
20210922095103 71 284 0.0 0.0 0.00 0.10 0.10 96 1008.9
20210922094603 71 284 0.0 0.0 0.00 0.10 0.10 96 1008.9
20210922094103 71 284 0.0 0.0 0.08 0.10 0.10 96 1008.9
20210922093603 71 284 0.0 0.0 0.08 0.10 0.10 96 1008.8
20210922093103 71 284 0.0 1.0 0.08 0.10 0.10 96 1008.7
20210922092603 71 284 0.0 3.0 0.08 0.10 0.10 96 1008.9
20210922092104 71 283 1.0 3.0 0.08 0.10 0.10 96 1008.9
20210922091603 71 207 0.0 3.0 0.08 0.10 0.10 96 1008.8
20210922091103 71 264 0.0 3.0 0.08 0.10 0.10 96 1008.9
20210922090603 71 291 0.0 2.0 0.08 0.10 0.10 96 1008.9
20210922090104 72 296 0.0 1.0 0.08 0.10 0.10 96 1008.8
20210922085604 72 296 0.0 3.0 0.08 0.10 0.10 96 1008.8
20210922085103 72 296 0.0 3.0 0.08 0.10 0.10 96 1008.8
20210922084603 72 285 0.0 3.0 0.08 0.10 0.10 96 1008.8
20210922084103 72 256 1.0 3.0 0.02 0.04 0.04 97 1008.8
20210922083604 72 285 0.0 0.0 0.00 0.02 0.02 97 1008.8
20210922083103 72 285 0.0 0.0 0.00 0.02 0.02 97 1008.9
20210922082604 72 286 0.0 0.0 0.00 0.02 0.02 97 1008.9
20210922082103 72 286 0.0 0.0 0.00 0.02 0.02 97 1008.9
20210922081603 72 286 0.0 0.0 0.00 0.02 0.02 96 1008.9
20210922081104 72 286 0.0 0.0 0.00 0.02 0.02 97 1008.9
20210922080604 72 286 0.0 0.0 0.00 0.02 0.02 97 1009.0
20210922080103 72 286 0.0 0.0 0.00 0.02 0.02 97 1009.0
20210922075603 72 286 0.0 0.0 0.00 0.02 0.02 97 1009.1
20210922075103 72 286 0.0 0.0 0.00 0.02 0.02 97 1009.2
20210922074604 72 286 0.0 0.0 0.00 0.02 0.02 97 1009.2
20210922074103 72 286 0.0 0.0 0.00 0.02 0.02 97 1009.4
20210922073603 72 286 0.0 0.0 0.00 0.02 0.02 97 1009.4
20210922073104 72 286 0.0 0.0 0.00 0.02 0.02 97 1009.5
20210922072603 72 286 0.0 0.0 0.00 0.02 0.02 97 1009.5
20210922072104 72 286 0.0 0.0 0.00 0.02 0.02 97 1009.4
20210922071603 72 286 0.0 0.0 0.00 0.02 0.02 96 1009.5
20210922071103 72 286 0.0 0.0 0.00 0.02 0.02 96 1009.4
20210922070604 72 286 0.0 0.0 0.00 0.02 0.02 96 1009.5
20210922070104 72 286 0.0 0.0 0.00 0.02 0.02 96 1009.5
20210922065604 72 286 0.0 0.0 0.00 0.02 0.02 96 1009.6
20210922065103 72 286 0.0 0.0 0.00 0.02 0.02 96 1009.8
20210922064604 72 286 0.0 0.0 0.00 0.02 0.02 96 1009.8
20210922064104 71 286 0.0 0.0 0.00 0.02 0.02 96 1009.8
20210922063104 71 286 0.0 0.0 0.00 0.02 0.02 96 1010.1
20210922062604 71 286 0.0 0.0 0.00 0.02 0.02 96 1010.1
20210922062104 71 286 0.0 0.0 0.00 0.02 0.02 96 1010.0
20210922061603 71 286 0.0 0.0 0.00 0.02 0.02 96 1010.1
20210922061103 71 286 0.0 0.0 0.00 0.02 0.02 96 1010.2
20210922060603 71 286 0.0 0.0 0.00 0.02 0.02 96 1010.3
20210922060104 71 286 0.0 0.0 0.00 0.02 0.02 96 1010.4
20210922055603 71 286 0.0 0.0 0.00 0.02 0.02 96 1010.4
20210922055103 71 286 0.0 0.0 0.00 0.02 0.02 96 1010.5
20210922054604 71 286 0.0 0.0 0.00 0.02 0.02 96 1010.3
20210922054103 71 286 0.0 0.0 0.00 0.02 0.02 96 1010.2
20210922053604 71 286 0.0 0.0 0.00 0.02 0.02 96 1010.3
20210922053103 71 286 0.0 0.0 0.00 0.02 0.02 96 1010.4
20210922052604 71 286 0.0 0.0 0.00 0.02 0.02 96 1010.4
20210922052103 71 286 0.0 0.0 0.00 0.02 0.02 96 1010.5
20210922051603 72 286 0.0 0.0 0.00 0.02 0.02 96 1010.7
20210922051104 72 286 0.0 0.0 0.00 0.02 0.02 96 1010.7
20210922050604 72 286 0.0 0.0 0.00 0.02 0.02 96 1010.8
20210922050103 72 286 0.0 0.0 0.00 0.02 0.02 96 1010.7
20210922045603 72 286 0.0 0.0 0.00 0.02 0.02 96 1010.7
20210922045104 72 286 0.0 0.0 0.00 0.02 0.02 96 1010.7
20210922044603 72 286 0.0 0.0 0.00 0.02 0.02 96 1010.6
20210922044104 72 286 0.0 0.0 0.00 0.02 0.02 96 1010.8
20210922043604 72 286 0.0 0.0 0.00 0.02 0.02 96 1010.9
20210922043104 72 286 0.0 0.0 0.00 0.02 0.02 96 1010.9
20210922042603 72 286 0.0 0.0 0.00 0.02 0.02 96 1010.9
20210922042104 72 286 0.0 0.0 0.00 0.02 0.02 96 1010.9
20210922041603 72 286 0.0 0.0 0.00 0.02 0.02 96 1011.0
20210922041104 72 286 0.0 0.0 0.00 0.02 0.02 96 1011.0
20210922040603 72 286 0.0 0.0 0.00 0.02 0.02 96 1011.1
20210922040103 72 286 0.0 0.0 0.00 0.02 0.02 96 1011.2
20210922035604 72 286 0.0 0.0 0.00 0.02 0.02 96 1011.3
20210922035104 72 286 0.0 0.0 0.00 0.02 0.02 96 1011.3
20210922034603 72 286 0.0 0.0 0.00 0.02 0.02 96 1011.3
20210922034104 72 286 0.0 0.0 0.00 0.02 0.02 96 1011.3
20210922033603 72 286 0.0 1.0 0.00 0.02 0.02 96 1011.4
20210922033103 72 286 0.0 1.0 0.00 0.02 0.02 96 1011.3
20210922032603 72 286 0.0 1.0 0.00 0.02 0.02 95 1011.3
20210922032103 72 286 0.0 0.0 0.00 0.02 0.02 95 1011.2
20210922031604 72 286 0.0 0.0 0.00 0.02 0.02 95 1011.1
20210922031103 72 286 0.0 0.0 0.00 0.02 0.02 95 1011.1
20210922030604 72 286 0.0 0.0 0.00 0.02 0.02 95 1011.2
20210922030103 72 286 0.0 0.0 0.00 0.02 0.02 95 1011.3
20210922025604 72 286 0.0 0.0 0.00 0.02 0.02 95 1011.4
20210922025103 72 286 0.0 0.0 0.00 0.02 0.02 95 1011.4
20210922024604 72 286 0.0 0.0 0.00 0.02 0.02 95 1011.4
20210922024103 72 286 0.0 0.0 0.00 0.02 0.02 95 1011.4
20210922023604 72 286 0.0 0.0 0.00 0.02 0.02 95 1011.3
20210922023103 73 286 0.0 0.0 0.00 0.02 0.02 95 1011.4
20210922022603 73 286 0.0 0.0 0.00 0.02 0.02 95 1011.3
20210922022103 73 286 0.0 0.0 0.00 0.02 0.02 95 1011.3
20210922021603 73 286 0.0 0.0 0.00 0.02 0.02 94 1011.4
20210922021103 73 286 0.0 0.0 0.00 0.02 0.02 94 1011.3
20210922020603 73 286 0.0 0.0 0.00 0.02 0.02 95 1011.4
20210922020104 73 286 0.0 0.0 0.00 0.02 0.02 95 1011.4
20210922015603 73 286 0.0 0.0 0.00 0.02 0.02 95 1011.4
20210922015104 73 286 0.0 0.0 0.00 0.02 0.02 95 1011.5
20210922014604 73 286 0.0 0.0 0.00 0.02 0.02 94 1011.5
20210922014103 73 286 0.0 0.0 0.00 0.02 0.02 94 1011.5
20210922013603 73 286 0.0 0.0 0.00 0.02 0.02 94 1011.5
20210922013103 73 286 0.0 0.0 0.00 0.02 0.02 94 1011.5
20210922012604 74 286 0.0 0.0 0.00 0.02 0.02 94 1011.5
20210922012103 74 286 0.0 0.0 0.00 0.02 0.02 94 1011.6
20210922011604 74 286 0.0 0.0 0.00 0.02 0.02 94 1011.5
20210922011104 74 286 0.0 0.0 0.00 0.02 0.02 94 1011.6
20210922010604 74 286 0.0 0.0 0.00 0.02 0.02 93 1011.7
20210922010104 74 286 0.0 0.0 0.00 0.02 0.02 93 1011.7
20210922005603 74 286 0.0 0.0 0.00 0.02 0.02 93 1011.6
20210922005104 74 286 0.0 0.0 0.00 0.02 0.02 92 1011.5
20210922004603 74 286 0.0 0.0 0.00 0.02 0.02 92 1011.4
20210922004104 74 286 0.0 0.0 0.00 0.02 0.02 92 1011.5
20210922003605 75 286 0.0 0.0 0.00 0.02 0.02 91 1011.4
20210922003106 75 286 0.0 0.0 0.00 0.02 0.02 91 1011.3
20210922002604 75 286 0.0 0.0 0.00 0.02 0.02 91 1011.3
20210922002104 75 286 0.0 0.0 0.00 0.02 0.02 91 1011.3
20210922001104 76 286 0.0 0.0 0.00 0.02 0.02 91 1011.3
20210922000603 76 286 0.0 0.0 0.00 0.02 0.02 91 1011.4
20210922000103 76 286 0.0 0.0 0.00 0.02 0.02 90 1011.4
20210921235604 76 286 0.0 0.0 0.00 0.02 0.02 90 1011.4
20210921235104 77 286 0.0 0.0 0.00 0.02 0.02 89 1011.3
20210921234604 77 286 0.0 0.0 0.00 0.02 0.02 88 1011.2
20210921234104 78 286 0.0 0.0 0.00 0.02 0.02 88 1011.2
20210921233603 78 286 0.0 0.0 0.00 0.02 0.02 87 1011.2
20210921233104 78 286 0.0 0.0 0.00 0.02 0.02 87 1011.3
20210921232603 78 286 0.0 0.0 0.00 0.02 0.02 86 1011.2
20210921232103 79 286 0.0 0.0 0.00 0.02 0.02 86 1011.1
20210921231604 79 286 0.0 0.0 0.00 0.02 0.02 86 1011.1
20210921231104 79 286 0.0 0.0 0.00 0.02 0.02 86 1010.9
20210921230604 79 286 0.0 1.0 0.00 0.02 0.02 85 1010.8
20210921230104 80 286 0.0 1.0 0.00 0.02 0.02 83 1010.8
20210921225603 80 286 0.0 0.0 0.00 0.02 0.02 82 1010.8
20210921225104 81 286 0.0 0.0 0.00 0.02 0.02 81 1010.6
20210921224603 81 286 0.0 0.0 0.00 0.02 0.02 81 1010.5
20210921224103 81 286 0.0 0.0 0.00 0.02 0.02 80 1010.4
20210921223604 81 286 0.0 0.0 0.00 0.02 0.02 80 1010.4
20210921223104 82 286 0.0 0.0 0.01 0.02 0.02 77 1010.4
20210921222604 82 287 0.0 1.0 0.01 0.02 0.02 79 1010.4
20210921222103 82 287 0.0 1.0 0.02 0.03 0.02 80 1010.4
20210921221603 82 287 0.0 1.0 0.02 0.05 0.02 77 1010.4
20210921221104 82 287 0.0 1.0 0.02 0.05 0.02 78 1010.4
20210921220604 82 287 0.0 1.0 0.02 0.05 0.02 76 1010.4
20210921220104 82 287 0.0 1.0 0.02 0.05 0.02 79 1010.4
20210921215604 81 286 0.0 1.0 0.02 0.06 0.02 82 1010.5
20210921215103 81 286 0.0 1.0 0.02 0.06 0.02 82 1010.5
20210921214603 80 286 0.0 1.0 0.02 0.06 0.02 86 1010.6
20210921214104 79 286 0.0 1.0 0.02 0.06 0.02 88 1010.5
20210921213604 79 286 0.0 1.0 0.02 0.06 0.02 86 1010.6
20210921213103 80 286 0.0 1.0 0.01 0.05 0.01 83 1010.7
20210921212604 80 286 0.0 0.0 0.01 0.05 0.01 83 1010.8
20210921212104 80 286 0.0 0.0 0.00 0.04 0.00 81 1010.9
20210921211603 80 286 0.0 0.0 0.00 0.04 0.00 79 1010.9
20210921211103 81 286 0.0 0.0 0.00 0.04 0.00 78 1011.0
20210921210604 81 286 0.0 0.0 0.00 0.04 0.00 77 1011.0
20210921210104 81 286 0.0 0.0 0.00 0.04 0.00 77 1011.0
20210921205603 81 286 0.0 0.0 0.00 0.04 0.00 76 1011.1
20210921205104 82 286 0.0 2.0 0.00 0.04 0.00 77 1011.1
20210921204603 82 287 0.0 2.0 0.00 0.04 0.00 78 1011.1
20210921204103 81 284 1.0 2.0 0.00 0.04 0.00 76 1011.0
20210921203603 81 284 0.0 3.0 0.00 0.04 0.00 76 1011.2
20210921203105 81 284 1.0 3.0 0.00 0.04 0.00 76 1011.1
20210921202603 82 298 2.0 3.0 0.00 0.04 0.00 78 1011.2
20210921202104 81 247 1.0 2.0 0.00 0.04 0.00 77 1011.2
20210921201604 81 246 1.0 2.0 0.00 0.04 0.00 77 1011.2
20210921201104 81 245 0.0 2.0 0.00 0.04 0.00 80 1011.3
20210921200603 81 246 1.0 3.0 0.00 0.04 0.00 81 1011.4
20210921200103 81 244 1.0 3.0 0.00 0.04 0.00 79 1011.4
20210921195604 81 98 0.0 3.0 0.00 0.04 0.00 79 1011.5
20210921195104 81 98 0.0 3.0 0.00 0.04 0.00 78 1011.6
20210921194603 81 116 1.0 3.0 0.00 0.04 0.00 77 1011.7
20210921194104 81 112 1.0 3.0 0.00 0.04 0.00 77 1011.8
20210921193603 81 101 1.0 3.0 0.00 0.04 0.00 77 1011.9
20210921193104 81 63 1.0 3.0 0.00 0.04 0.00 78 1011.9
20210921192604 81 67 0.0 3.0 0.00 0.04 0.00 77 1011.9
20210921192104 81 67 1.0 3.0 0.00 0.04 0.00 77 1011.9
20210921191604 81 109 0.0 3.0 0.00 0.04 0.00 77 1011.9
20210921191103 82 109 1.0 3.0 0.00 0.04 0.00 77 1011.9
20210921190605 82 150 1.0 3.0 0.00 0.04 0.00 76 1011.9
20210921190104 82 150 0.0 3.0 0.00 0.04 0.00 76 1012.0
20210921185603 83 173 1.0 5.0 0.00 0.04 0.00 75 1012.0
20210921185104 83 102 2.0 5.0 0.00 0.04 0.00 73 1012.0
20210921184604 83 104 1.0 3.0 0.00 0.04 0.00 74 1012.1
20210921184103 83 80 1.0 3.0 0.00 0.04 0.00 74 1012.2
20210921183604 83 64 1.0 3.0 0.00 0.04 0.00 75 1012.4
20210921183103 83 56 1.0 3.0 0.00 0.04 0.00 74 1012.5
20210921182604 83 84 2.0 3.0 0.00 0.04 0.00 76 1012.7
20210921182103 82 94 1.0 3.0 0.00 0.04 0.00 76 1012.8
20210921181604 82 121 1.0 3.0 0.00 0.04 0.00 78 1012.9
20210921181104 82 84 0.0 3.0 0.00 0.04 0.00 78 1013.0
20210921180604 82 340 1.0 3.0 0.00 0.04 0.00 75 1013.0
20210921180104 83 150 1.0 3.0 0.00 0.04 0.00 75 1013.1
20210921175600 83 88 1.0 3.0 0.00 0.04 0.00 75 1013.1
20210921175103 82 109 1.0 6.0 0.00 0.04 0.00 76 1013.1
20210921174604 82 294 2.0 6.0 0.00 0.04 0.00 77 1013.3
20210921174104 81 94 1.0 2.0 0.00 0.04 0.00 83 1013.3
20210921173604 80 75 1.0 3.0 0.00 0.04 0.00 83 1013.4
20210921173103 79 98 1.0 3.0 0.00 0.04 0.00 83 1013.5
20210921172604 79 86 1.0 2.0 0.00 0.04 0.00 82 1013.6
20210921172104 79 88 0.0 3.0 0.00 0.04 0.00 81 1013.7
20210921171603 80 88 1.0 3.0 0.00 0.04 0.00 80 1013.8
20210921171104 80 78 1.0 3.0 0.00 0.04 0.00 80 1013.8
20210921170604 80 74 0.0 3.0 0.00 0.04 0.00 80 1013.8
20210921170103 80 76 1.0 3.0 0.00 0.04 0.00 80 1013.8
20210921165604 79 69 1.0 3.0 0.00 0.04 0.00 83 1013.8
20210921165104 79 122 1.0 3.0 0.00 0.04 0.00 84 1013.9
20210921164604 79 127 1.0 3.0 0.00 0.04 0.00 83 1013.9
20210921164104 79 102 0.0 3.0 0.00 0.04 0.00 82 1014.0
20210921163604 79 95 1.0 3.0 0.00 0.04 0.00 83 1014.1
20210921163104 79 103 0.0 2.0 0.00 0.04 0.00 83 1014.1
20210921162604 79 104 0.0 2.0 0.00 0.04 0.00 84 1014.2
20210921162104 79 97 1.0 3.0 0.00 0.04 0.00 84 1014.2